Location: Mentone
(34.5413°N, 85.5351°W)
Time: 04:44:55
(UTC-05:00)

Tiros 1 despin weight - Visible Passes

Search period start: 04 August 2015 00:00
Search period end: 14 August 2015 00:00
Orbit: 597 x 647 km, 48.2° (Epoch: 03 August)

Date Brightness Start Highest point End Pass type
(mag) Time Alt. Az. Time Alt. Az. Time Alt. Az.
04 Aug ? 20:19:57 10° WNW 20:23:20 20° NNW 20:26:43 10° NNE visible
04 Aug ? 22:03:42 10° NNW 22:06:22 15° N 22:09:04 10° NE visible
04 Aug ? 23:45:11 10° NW 23:46:50 19° NNW 23:46:50 19° NNW visible
05 Aug ? 20:38:55 10° NW 20:41:44 16° N 20:44:34 10° NNE visible
05 Aug ? 22:21:42 10° NNW 22:24:48 17° NNE 22:26:20 15° NE visible
06 Aug ? 00:02:51 10° NW 00:03:26 13° NW 00:03:26 13° NW visible
06 Aug ? 20:57:38 10° NW 21:00:12 15° N 21:02:47 10° NE visible
06 Aug ? 22:39:26 10° NNW 22:42:58 23° NNE 22:42:58 23° NNE visible
07 Aug ? 21:15:51 10° NNW 21:18:39 16° N 21:21:31 10° NE visible
07 Aug ? 22:57:05 10° NW 22:59:39 26° NNW 22:59:39 26° NNW visible
08 Aug ? 21:33:41 10° NNW 21:37:03 20° NNE 21:39:15 15° NE visible
08 Aug ? 23:14:47 10° NW 23:16:21 21° NW 23:16:21 21° NW visible
09 Aug ? 20:09:55 10° NNW 20:12:29 15° N 20:15:07 10° NE visible
09 Aug ? 21:51:20 10° NW 21:55:20 28° NNE 21:56:00 27° NE visible
09 Aug ? 23:32:40 10° WNW 23:33:06 13° WNW 23:33:06 13° WNW visible
10 Aug ? 20:27:53 10° NNW 20:30:55 17° NNE 20:34:00 10° NE visible
10 Aug ? 22:09:00 10° NW 22:12:46 43° N 22:12:46 43° N visible
11 Aug ? 20:45:36 10° NNW 20:49:15 23° NNE 20:52:29 12° ENE visible
11 Aug ? 22:26:45 10° NW 22:29:36 37° NW 22:29:36 37° NW visible
12 Aug ? 21:03:14 10° NW 21:07:27 35° NNE 21:09:21 25° ENE visible
12 Aug ? 22:44:47 10° WNW 22:46:29 21° WNW 22:46:29 21° WNW visible
13 Aug ? 21:20:55 10° NW 21:25:29 63° NE 21:26:17 53° E visible
13 Aug ? 23:03:22 10° W 23:03:25 10° W 23:03:25 10° W visible
